| time (UTC) | temp F | wind direction | speed knots | gust knots | rain 1hr in | rain 24hr in | rain mn in | humidity % | barometer mb |
| 20260903133616 | 75 | 165 | 0.9 | 3.5 | 0.03 | 0.06 | 0.06 | 86 | 1010.3 |
| 20260903133117 | 75 | 142 | 1.7 | 3.5 | 0.04 | 0.06 | 0.06 | 86 | 1010.3 |
| 20260903132616 | 75 | 131 | 1.7 | 5.2 | 0.05 | 0.06 | 0.06 | 87 | 1010.4 |
| 20260903132115 | 75 | 121 | 1.7 | 5.2 | 0.06 | 0.06 | 0.06 | 87 | 1010.5 |
| 20260903131615 | 75 | 193 | 1.7 | 6.1 | 0.06 | 0.06 | 0.06 | 86 | 1010.5 |
| 20260903131115 | 74 | 144 | 3.5 | 6.1 | 0.06 | 0.06 | 0.06 | 86 | 1010.5 |
| 20260903130616 | 74 | 139 | 0.9 | 2.6 | 0.06 | 0.06 | 0.06 | 86 | 1010.6 |
| 20260903125614 | 75 | 162 | 0.9 | 2.6 | 0.06 | 0.06 | 0.06 | 85 | 1010.6 |
| 20260903125113 | 75 | 102 | 0.9 | 2.6 | 0.05 | 0.05 | 0.06 | 85 | 1010.7 |
| 20260903124613 | 75 | 129 | 1.7 | 3.5 | 0.05 | 0.05 | 0.05 | 84 | 1010.9 |
| 20260903123113 | 76 | 279 | 2.6 | 6.1 | 0.02 | 0.02 | 0.02 | 83 | 1011.3 |
| 20260903122113 | 76 | 137 | 0.0 | 1.7 | 0.00 | 0.00 | 0.00 | 82 | 1010.8 |
| 20260903121612 | 76 | 26 | 0.9 | 1.7 | 0.00 | 0.00 | 0.00 | 81 | 1010.8 |
| 20260903121112 | 76 | 9 | 0.9 | 1.7 | 0.00 | 0.00 | 0.00 | 81 | 1010.9 |
| 20260903120613 | 76 | 9 | 0.9 | 2.6 | 0.00 | 0.00 | 0.00 | 81 | 1010.8 |
| 20260903120112 | 76 | 344 | 1.7 | 2.6 | 0.00 | 0.00 | 0.00 | 80 | 1010.8 |
| 20260903115612 | 76 | 325 | 0.0 | 3.5 | 0.00 | 0.00 | 0.00 | 79 | 1010.7 |
| 20260903115112 | 77 | 70 | 1.7 | 3.5 | 0.00 | 0.00 | 0.00 | 79 | 1010.6 |
| 20260903114612 | 77 | 129 | 1.7 | 2.6 | 0.00 | 0.00 | 0.00 | 79 | 1010.6 |
| 20260903114113 | 77 | 105 | 0.9 | 2.6 | 0.00 | 0.00 | 0.00 | 78 | 1010.6 |
| 20260903113611 | 77 | 9 | 0.0 | 3.5 | 0.00 | 0.00 | 0.00 | 78 | 1010.7 |
| 20260903113111 | 77 | 93 | 0.9 | 4.3 | 0.00 | 0.00 | 0.00 | 77 | 1010.5 |
| 20260903112611 | 78 | 111 | 2.6 | 4.3 | 0.00 | 0.00 | 0.00 | 76 | 1010.4 |
| 20260903112111 | 78 | 149 | 1.7 | 3.5 | 0.00 | 0.00 | 0.00 | 76 | 1010.3 |
| 20260903111610 | 78 | 153 | 1.7 | 3.5 | 0.00 | 0.00 | 0.00 | 75 | 1010.2 |
| 20260903111110 | 78 | 146 | 1.7 | 4.3 | 0.00 | 0.00 | 0.00 | 75 | 1010.2 |
| 20260903110610 | 78 | 142 | 2.6 | 6.1 | 0.00 | 0.00 | 0.00 | 75 | 1010.2 |
| 20260903105609 | 78 | 153 | 1.7 | 4.3 | 0.00 | 0.00 | 0.00 | 74 | 1010.2 |
| 20260903105105 | 78 | 178 | 0.9 | 2.6 | 0.00 | 0.00 | 0.00 | 74 | 1010.2 |
| 20260903104605 | 79 | 108 | 0.9 | 3.5 | 0.00 | 0.00 | 0.00 | 73 | 1010.4 |
| 20260903104107 | 79 | 32 | 0.9 | 3.5 | 0.00 | 0.00 | 0.00 | 72 | 1010.3 |
| 20260903102605 | 79 | 93 | 0.9 | 5.2 | 0.00 | 0.00 | 0.00 | 70 | 1010.6 |
| 20260903101604 | 80 | 238 | 3.5 | 10.4 | 0.00 | 0.00 | 0.00 | 67 | 1010.6 |
| 20260903101104 | 81 | 218 | 6.1 | 10.4 | 0.00 | 0.00 | 0.00 | 65 | 1010.6 |
| 20260903100603 | 82 | 194 | 5.2 | 9.6 | 0.00 | 0.00 | 0.00 | 64 | 1010.7 |
| 20260903100103 | 81 | 228 | 4.3 | 7.0 | 0.00 | 0.00 | 0.00 | 63 | 1010.6 |
| 20260903095603 | 81 | 205 | 3.5 | 7.0 | 0.00 | 0.00 | 0.00 | 63 | 1010.4 |
| 20260903094604 | 81 | 188 | 2.6 | 8.7 | 0.00 | 0.00 | 0.00 | 63 | 1010.0 |
| 20260903094105 | 81 | 157 | 3.5 | 8.7 | 0.00 | 0.00 | 0.00 | 63 | 1010.0 |
| 20260903093603 | 81 | 186 | 4.3 | 8.7 | 0.00 | 0.00 | 0.00 | 63 | 1009.9 |
| 20260903092102 | 82 | 178 | 4.3 | 8.7 | 0.00 | 0.00 | 0.00 | 62 | 1010.2 |
| 20260903091602 | 82 | 218 | 3.5 | 8.7 | 0.00 | 0.00 | 0.00 | 62 | 1010.0 |
| 20260903090602 | 82 | 171 | 2.6 | 7.8 | 0.00 | 0.00 | 0.00 | 61 | 1010.2 |
| 20260903085602 | 82 | 178 | 4.3 | 7.8 | 0.00 | 0.00 | 0.00 | 61 | 1010.0 |
| 20260903085102 | 82 | 178 | 5.2 | 7.8 | 0.00 | 0.00 | 0.00 | 61 | 1010.0 |
| 20260903084601 | 82 | 218 | 3.5 | 7.8 | 0.00 | 0.00 | 0.00 | 61 | 1010.2 |
| 20260903083602 | 83 | 134 | 3.5 | 8.7 | 0.00 | 0.00 | 0.00 | 60 | 1010.2 |
| 20260903083101 | 83 | 175 | 3.5 | 7.8 | 0.00 | 0.00 | 0.00 | 60 | 1010.2 |
| 20260903082602 | 83 | 123 | 3.5 | 9.6 | 0.00 | 0.00 | 0.00 | 59 | 1010.2 |
| 20260903081601 | 83 | 207 | 5.2 | 11.3 | 0.00 | 0.00 | 0.00 | 59 | 1010.2 |
| 20260903081101 | 83 | 178 | 4.3 | 11.3 | 0.00 | 0.00 | 0.00 | 59 | 1010.2 |
| 20260903080100 | 83 | 150 | 3.5 | 9.6 | 0.00 | 0.00 | 0.00 | 59 | 1010.2 |
| 20260903075600 | 83 | 168 | 4.3 | 9.6 | 0.00 | 0.00 | 0.00 | 60 | 1010.3 |
| 20260903075101 | 82 | 140 | 3.5 | 8.7 | 0.00 | 0.00 | 0.00 | 61 | 1010.2 |
| 20260903074600 | 82 | 186 | 3.5 | 8.7 | 0.00 | 0.00 | 0.00 | 61 | 1010.2 |
| 20260903074102 | 82 | 134 | 4.3 | 7.8 | 0.00 | 0.00 | 0.00 | 62 | 1010.2 |
| 20260903073600 | 82 | 191 | 3.5 | 7.8 | 0.00 | 0.00 | 0.00 | 62 | 1010.3 |
| 20260903073100 | 82 | 189 | 2.6 | 7.0 | 0.00 | 0.00 | 0.00 | 62 | 1010.0 |
| 20260903072600 | 82 | 111 | 3.5 | 6.1 | 0.00 | 0.00 | 0.00 | 62 | 1010.2 |
| 20260903072100 | 82 | 212 | 2.6 | 7.0 | 0.00 | 0.00 | 0.00 | 62 | 1010.2 |
| 20260903071059 | 83 | 153 | 3.5 | 7.8 | 0.00 | 0.00 | 0.00 | 61 | 1010.3 |
| 20260903070559 | 83 | 221 | 3.5 | 7.0 | 0.00 | 0.00 | 0.00 | 61 | 1010.3 |
| 20260903070100 | 83 | 132 | 3.5 | 8.7 | 0.00 | 0.00 | 0.00 | 61 | 1010.2 |
| 20260903065059 | 83 | 171 | 3.5 | 8.7 | 0.00 | 0.00 | 0.00 | 61 | 1010.3 |
| 20260903064559 | 83 | 184 | 2.6 | 6.1 | 0.00 | 0.00 | 0.00 | 61 | 1010.2 |
| 20260903064100 | 83 | 183 | 3.5 | 9.6 | 0.00 | 0.00 | 0.00 | 60 | 1010.3 |
| 20260903063059 | 83 | 191 | 3.5 | 7.8 | 0.00 | 0.00 | 0.00 | 60 | 1010.2 |
| 20260903062059 | 83 | 128 | 4.3 | 8.7 | 0.00 | 0.00 | 0.00 | 60 | 1010.3 |
| 20260903061559 | 83 | 128 | 4.3 | 9.6 | 0.00 | 0.00 | 0.00 | 60 | 1010.3 |
| 20260903061059 | 84 | 121 | 4.3 | 9.6 | 0.00 | 0.00 | 0.00 | 60 | 1010.3 |
| 20260903060559 | 84 | 141 | 5.2 | 8.7 | 0.00 | 0.00 | 0.00 | 59 | 1010.3 |
| 20260903060058 | 84 | 177 | 4.3 | 10.4 | 0.00 | 0.00 | 0.00 | 59 | 1010.3 |
| 20260903055558 | 84 | 162 | 3.5 | 10.4 | 0.00 | 0.00 | 0.00 | 59 | 1010.4 |
| 20260903055058 | 84 | 157 | 5.2 | 9.6 | 0.00 | 0.00 | 0.00 | 59 | 1010.4 |
| 20260903054559 | 84 | 189 | 3.5 | 7.8 | 0.00 | 0.00 | 0.00 | 59 | 1010.4 |
| 20260903054059 | 84 | 171 | 5.2 | 9.6 | 0.00 | 0.00 | 0.00 | 59 | 1010.3 |
| 20260903053558 | 84 | 182 | 4.3 | 9.6 | 0.00 | 0.00 | 0.00 | 59 | 1010.3 |
| 20260903052057 | 84 | 183 | 5.2 | 8.7 | 0.00 | 0.00 | 0.00 | 59 | 1010.4 |
| 20260903051557 | 84 | 159 | 3.5 | 7.8 | 0.00 | 0.00 | 0.00 | 59 | 1010.4 |
| 20260903051057 | 84 | 146 | 3.5 | 7.8 | 0.00 | 0.00 | 0.00 | 59 | 1010.4 |
| 20260903050557 | 84 | 168 | 3.5 | 9.6 | 0.00 | 0.00 | 0.00 | 59 | 1010.3 |
| 20260903050057 | 84 | 171 | 3.5 | 10.4 | 0.00 | 0.00 | 0.00 | 59 | 1010.4 |
| 20260903045557 | 84 | 201 | 4.3 | 10.4 | 0.00 | 0.00 | 0.00 | 59 | 1010.3 |
| 20260903045057 | 84 | 178 | 3.5 | 7.8 | 0.00 | 0.00 | 0.00 | 58 | 1010.4 |
| 20260903044558 | 84 | 184 | 4.3 | 12.2 | 0.00 | 0.00 | 0.00 | 58 | 1010.4 |
| 20260903044057 | 84 | 177 | 3.5 | 12.2 | 0.00 | 0.00 | 0.00 | 58 | 1010.4 |
| 20260903043056 | 84 | 189 | 3.5 | 8.7 | 0.00 | 0.00 | 0.00 | 58 | 1010.4 |
| 20260903042557 | 84 | 186 | 4.3 | 8.7 | 0.00 | 0.00 | 0.00 | 58 | 1010.3 |
| 20260903042056 | 84 | 160 | 3.5 | 8.7 | 0.00 | 0.00 | 0.00 | 59 | 1010.4 |
| 20260903041556 | 84 | 123 | 4.3 | 8.7 | 0.00 | 0.00 | 0.00 | 58 | 1010.4 |
| 20260903041056 | 84 | 160 | 3.5 | 8.7 | 0.00 | 0.00 | 0.00 | 58 | 1010.4 |
| 20260903040556 | 85 | 165 | 4.3 | 8.7 | 0.00 | 0.00 | 0.00 | 58 | 1010.4 |
| 20260903040055 | 85 | 135 | 3.5 | 7.0 | 0.00 | 0.00 | 0.00 | 58 | 1010.3 |
| 20260903035555 | 85 | 205 | 3.5 | 7.0 | 0.00 | 0.00 | 0.00 | 58 | 1010.4 |
| 20260903035056 | 85 | 153 | 3.5 | 7.0 | 0.00 | 0.00 | 0.00 | 58 | 1010.3 |
| 20260903033556 | 85 | 146 | 4.3 | 8.7 | 0.00 | 0.00 | 0.00 | 58 | 1010.4 |
| 20260903033055 | 85 | 156 | 3.5 | 7.0 | 0.00 | 0.00 | 0.00 | 58 | 1010.3 |
| 20260903032056 | 85 | 175 | 2.6 | 6.1 | 0.00 | 0.00 | 0.00 | 58 | 1010.2 |
| 20260903031555 | 85 | 178 | 2.6 | 7.0 | 0.00 | 0.00 | 0.00 | 57 | 1010.2 |
| 20260903031056 | 85 | 178 | 1.7 | 7.0 | 0.00 | 0.00 | 0.00 | 57 | 1010.3 |
| 20260903030555 | 86 | 175 | 2.6 | 6.1 | 0.00 | 0.00 | 0.00 | 57 | 1010.3 |
| 20260903030055 | 86 | 151 | 3.5 | 5.2 | 0.00 | 0.00 | 0.00 | 56 | 1010.3 |
| 20260903025055 | 86 | 178 | 3.5 | 7.8 | 0.00 | 0.00 | 0.00 | 56 | 1010.3 |
| 20260903024554 | 86 | 175 | 2.6 | 7.8 | 0.00 | 0.00 | 0.00 | 56 | 1010.2 |
| 20260903024054 | 87 | 162 | 3.5 | 7.8 | 0.00 | 0.00 | 0.00 | 56 | 1010.2 |
| 20260903023554 | 87 | 124 | 3.5 | 7.8 | 0.00 | 0.00 | 0.00 | 56 | 1010.0 |
| 20260903023054 | 87 | 146 | 2.6 | 5.2 | 0.00 | 0.00 | 0.00 | 56 | 1009.9 |
| 20260903022553 | 87 | 171 | 2.6 | 7.8 | 0.00 | 0.00 | 0.00 | 55 | 1009.9 |
| 20260903021553 | 87 | 182 | 3.5 | 8.7 | 0.00 | 0.00 | 0.00 | 55 | 1009.9 |
| 20260903021053 | 88 | 178 | 3.5 | 8.7 | 0.00 | 0.00 | 0.00 | 55 | 1009.9 |
| 20260903020553 | 88 | 178 | 2.6 | 7.8 | 0.00 | 0.00 | 0.00 | 55 | 1009.8 |
| 20260903020053 | 88 | 156 | 2.6 | 7.8 | 0.00 | 0.00 | 0.00 | 55 | 1009.8 |
| 20260903015552 | 88 | 0 | 3.5 | 7.8 | 0.00 | 0.00 | 0.00 | 55 | 1009.6 |
| 20260903015053 | 88 | 139 | 3.5 | 7.8 | 0.00 | 0.00 | 0.00 | 55 | 1009.6 |
| 20260903014551 | 89 | 166 | 3.5 | 8.7 | 0.00 | 0.00 | 0.00 | 55 | 1009.5 |
| 20260903013552 | 89 | 183 | 3.5 | 7.0 | 0.00 | 0.00 | 0.00 | 54 | 1009.4 |
| 20260903011550 | 89 | 139 | 2.6 | 6.1 | 0.00 | 0.00 | 0.00 | 54 | 1009.3 |
| 20260903011051 | 90 | 147 | 3.5 | 5.2 | 0.00 | 0.00 | 0.00 | 54 | 1009.3 |
| 20260903010550 | 90 | 142 | 1.7 | 5.2 | 0.00 | 0.00 | 0.00 | 53 | 1009.3 |
| 20260903010050 | 90 | 157 | 2.6 | 8.7 | 0.00 | 0.00 | 0.00 | 53 | 1009.3 |
| 20260903005550 | 91 | 153 | 1.7 | 8.7 | 0.00 | 0.00 | 0.00 | 52 | 1009.3 |
| 20260903005051 | 91 | 137 | 1.7 | 5.2 | 0.00 | 0.00 | 0.00 | 52 | 1009.3 |
| 20260903004550 | 92 | 184 | 2.6 | 7.8 | 0.00 | 0.00 | 0.00 | 51 | 1009.3 |
| 20260903004049 | 92 | 177 | 4.3 | 7.8 | 0.00 | 0.00 | 0.00 | 50 | 1009.4 |
| 20260903003549 | 92 | 182 | 2.6 | 7.8 | 0.00 | 0.00 | 0.00 | 50 | 1009.4 |
| 20260903003050 | 92 | 195 | 3.5 | 9.6 | 0.00 | 0.00 | 0.00 | 50 | 1009.4 |
| 20260903002048 | 93 | 131 | 5.2 | 9.6 | 0.00 | 0.00 | 0.00 | 49 | 1009.4 |
| 20260903001048 | 93 | 191 | 2.6 | 8.7 | 0.00 | 0.00 | 0.00 | 49 | 1009.4 |
| 20260903000548 | 93 | 173 | 3.5 | 6.1 | 0.00 | 0.00 | 0.00 | 49 | 1009.3 |
| 20260903000048 | 94 | 196 | 2.6 | 6.1 | 0.00 | 0.00 | 0.00 | 49 | 1009.5 |
| 20260902235548 | 94 | 163 | 3.5 | 8.7 | 0.00 | 0.00 | 0.00 | 48 | 1009.5 |
| 20260902235050 | 94 | 142 | 3.5 | 8.7 | 0.00 | 0.00 | 0.00 | 47 | 1009.5 |
| 20260902234548 | 94 | 169 | 3.5 | 7.0 | 0.00 | 0.00 | 0.00 | 48 | 1009.5 |
| 20260902234048 | 94 | 193 | 2.6 | 7.8 | 0.00 | 0.00 | 0.00 | 48 | 1009.5 |
| 20260902233548 | 94 | 178 | 3.5 | 13.0 | 0.00 | 0.00 | 0.00 | 47 | 1009.5 |
| 20260902233048 | 95 | 207 | 4.3 | 13.0 | 0.00 | 0.00 | 0.00 | 48 | 1009.6 |
| 20260902232548 | 95 | 168 | 5.2 | 12.2 | 0.00 | 0.00 | 0.00 | 47 | 1009.5 |
| 20260902232047 | 95 | 178 | 4.3 | 12.2 | 0.00 | 0.00 | 0.00 | 47 | 1009.5 |
| 20260902231547 | 95 | 207 | 4.3 | 11.3 | 0.00 | 0.00 | 0.00 | 47 | 1009.6 |
| 20260902231047 | 95 | 234 | 7.0 | 13.9 | 0.00 | 0.00 | 0.00 | 47 | 1009.6 |
| 20260902230546 | 95 | 225 | 5.2 | 13.9 | 0.00 | 0.00 | 0.00 | 46 | 1009.6 |
| 20260902230046 | 95 | 209 | 5.2 | 13.0 | 0.00 | 0.00 | 0.00 | 46 | 1009.6 |
| 20260902225048 | 96 | 225 | 6.1 | 13.9 | 0.00 | 0.00 | 0.00 | 47 | 1009.7 |
| 20260902224546 | 96 | 196 | 4.3 | 9.6 | 0.00 | 0.00 | 0.00 | 48 | 1009.7 |
| 20260902223546 | 96 | 223 | 6.1 | 11.3 | 0.00 | 0.00 | 0.00 | 47 | 1009.7 |
| 20260902222545 | 95 | 238 | 7.0 | 13.0 | 0.00 | 0.00 | 0.00 | 46 | 1009.6 |
| 20260902222044 | 95 | 166 | 5.2 | 9.6 | 0.00 | 0.00 | 0.00 | 47 | 1009.7 |
| 20260902221545 | 95 | 223 | 6.1 | 9.6 | 0.00 | 0.00 | 0.00 | 48 | 1009.7 |
| 20260902221044 | 95 | 229 | 6.1 | 13.9 | 0.00 | 0.00 | 0.00 | 48 | 1009.6 |
| 20260902220544 | 94 | 245 | 4.3 | 13.9 | 0.00 | 0.00 | 0.00 | 48 | 1009.7 |
| 20260902215544 | 94 | 200 | 5.2 | 17.4 | 0.00 | 0.00 | 0.00 | 48 | 1009.7 |
| 20260902214543 | 95 | 192 | 7.0 | 13.9 | 0.00 | 0.00 | 0.00 | 45 | 1009.8 |
| 20260902214043 | 95 | 195 | 4.3 | 10.4 | 0.00 | 0.00 | 0.00 | 47 | 1009.7 |
| 20260902213543 | 95 | 240 | 4.3 | 10.4 | 0.00 | 0.00 | 0.00 | 50 | 1009.8 |
| 20260902213042 | 94 | 214 | 6.1 | 13.0 | 0.00 | 0.00 | 0.00 | 49 | 1009.7 |
| 20260902212542 | 94 | 229 | 8.7 | 13.0 | 0.00 | 0.00 | 0.00 | 48 | 1009.9 |
| 20260902211040 | 94 | 193 | 5.2 | 14.8 | 0.00 | 0.00 | 0.00 | 49 | 1009.9 |
| 20260902210039 | 94 | 205 | 7.0 | 14.8 | 0.00 | 0.00 | 0.00 | 48 | 1010.0 |
| 20260902205540 | 94 | 196 | 6.1 | 12.2 | 0.00 | 0.00 | 0.00 | 49 | 1010.0 |
| 20260902205040 | 94 | 205 | 5.2 | 12.2 | 0.00 | 0.00 | 0.00 | 50 | 1010.0 |
| 20260902204539 | 94 | 279 | 5.2 | 10.4 | 0.00 | 0.00 | 0.00 | 48 | 1010.2 |
| 20260902204039 | 94 | 191 | 6.1 | 11.3 | 0.00 | 0.00 | 0.00 | 48 | 1010.2 |
| 20260902203039 | 95 | 244 | 7.8 | 14.8 | 0.00 | 0.00 | 0.00 | 46 | 1010.3 |
| 20260902202538 | 95 | 202 | 6.1 | 13.9 | 0.00 | 0.00 | 0.00 | 46 | 1010.3 |
| 20260902202038 | 95 | 159 | 7.8 | 13.9 | 0.00 | 0.00 | 0.00 | 44 | 1010.5 |
| 20260902201538 | 95 | 244 | 6.1 | 10.4 | 0.00 | 0.00 | 0.00 | 46 | 1010.5 |
| 20260902201038 | 95 | 177 | 5.2 | 13.0 | 0.00 | 0.00 | 0.00 | 48 | 1010.5 |
| 20260902200537 | 94 | 225 | 6.1 | 13.0 | 0.00 | 0.00 | 0.00 | 47 | 1010.4 |
| 20260902194537 | 94 | 196 | 7.0 | 14.8 | 0.00 | 0.00 | 0.00 | 48 | 1010.5 |
| 20260902194037 | 94 | 202 | 7.0 | 13.0 | 0.00 | 0.00 | 0.00 | 49 | 1010.6 |
| 20260902193537 | 93 | 225 | 6.1 | 13.0 | 0.00 | 0.00 | 0.00 | 53 | 1010.6 |
| 20260902193036 | 92 | 236 | 7.0 | 13.0 | 0.00 | 0.00 | 0.00 | 50 | 1010.7 |
| 20260902192537 | 92 | 203 | 7.0 | 12.2 | 0.00 | 0.00 | 0.00 | 49 | 1010.8 |
| 20260902192036 | 92 | 209 | 7.0 | 12.2 | 0.00 | 0.00 | 0.00 | 49 | 1010.7 |
| 20260902191535 | 93 | 211 | 5.2 | 10.4 | 0.00 | 0.00 | 0.00 | 49 | 1010.6 |
| 20260902191035 | 93 | 243 | 4.3 | 10.4 | 0.00 | 0.00 | 0.00 | 54 | 1010.7 |
| 20260902190035 | 93 | 200 | 5.2 | 13.0 | 0.00 | 0.00 | 0.00 | 50 | 1010.8 |
| 20260902185534 | 92 | 178 | 5.2 | 10.4 | 0.00 | 0.00 | 0.00 | 50 | 1010.8 |
| 20260902185036 | 92 | 171 | 5.2 | 10.4 | 0.00 | 0.00 | 0.00 | 53 | 1010.9 |
| 20260902184534 | 92 | 155 | 3.5 | 10.4 | 0.00 | 0.00 | 0.00 | 52 | 1011.0 |
| 20260902184034 | 92 | 175 | 4.3 | 12.2 | 0.00 | 0.00 | 0.00 | 53 | 1011.1 |
| 20260902183534 | 92 | 146 | 5.2 | 12.2 | 0.00 | 0.00 | 0.00 | 54 | 1011.1 |
| 20260902183033 | 91 | 131 | 5.2 | 11.3 | 0.00 | 0.00 | 0.00 | 54 | 1011.2 |
| 20260902182532 | 91 | 196 | 5.2 | 11.3 | 0.00 | 0.00 | 0.00 | 52 | 1011.2 |
| 20260902181532 | 91 | 160 | 6.1 | 9.6 | 0.00 | 0.00 | 0.00 | 51 | 1011.2 |
| 20260902181033 | 91 | 194 | 4.3 | 10.4 | 0.00 | 0.00 | 0.00 | 50 | 1011.3 |
| 20260902180532 | 91 | 144 | 4.3 | 13.9 | 0.00 | 0.00 | 0.00 | 50 | 1011.3 |
| 20260902180032 | 92 | 255 | 7.0 | 13.9 | 0.00 | 0.00 | 0.00 | 48 | 1011.3 |
| 20260902175532 | 92 | 186 | 7.0 | 12.2 | 0.00 | 0.00 | 0.00 | 49 | 1011.4 |
| 20260902175033 | 92 | 211 | 6.1 | 10.4 | 0.00 | 0.00 | 0.00 | 49 | 1011.4 |
| 20260902174531 | 92 | 196 | 6.1 | 9.6 | 0.00 | 0.00 | 0.00 | 51 | 1011.5 |
| 20260902174031 | 91 | 189 | 3.5 | 7.8 | 0.00 | 0.00 | 0.00 | 52 | 1011.5 |
| 20260902173532 | 90 | 149 | 3.5 | 9.6 | 0.00 | 0.00 | 0.00 | 52 | 1011.6 |
| 20260902173032 | 90 | 178 | 5.2 | 9.6 | 0.00 | 0.00 | 0.00 | 52 | 1011.6 |
| 20260902172530 | 89 | 193 | 3.5 | 7.8 | 0.00 | 0.00 | 0.00 | 55 | 1011.6 |
| 20260902172030 | 89 | 198 | 1.7 | 7.8 | 0.00 | 0.00 | 0.00 | 55 | 1011.6 |
| 20260902171529 | 88 | 171 | 3.5 | 7.0 | 0.00 | 0.00 | 0.00 | 55 | 1011.6 |
| 20260902170028 | 87 | 207 | 5.2 | 8.7 | 0.00 | 0.00 | 0.00 | 54 | 1011.7 |
| 20260902165528 | 87 | 151 | 2.6 | 7.8 | 0.00 | 0.00 | 0.00 | 55 | 1011.8 |
| 20260902165029 | 87 | 215 | 1.7 | 4.3 | 0.00 | 0.00 | 0.00 | 59 | 1011.8 |
| 20260902164528 | 86 | 196 | 2.6 | 5.2 | 0.00 | 0.00 | 0.00 | 56 | 1011.8 |
| 20260902164028 | 86 | 146 | 1.7 | 5.2 | 0.00 | 0.00 | 0.00 | 58 | 1011.8 |
| 20260902163528 | 86 | 165 | 1.7 | 4.3 | 0.00 | 0.00 | 0.00 | 57 | 1011.8 |
| 20260902163027 | 86 | 191 | 1.7 | 5.2 | 0.00 | 0.00 | 0.00 | 56 | 1011.7 |
| 20260902162527 | 86 | 205 | 2.6 | 5.2 | 0.00 | 0.00 | 0.00 | 55 | 1011.8 |
| 20260902162027 | 86 | 212 | 2.6 | 6.1 | 0.00 | 0.00 | 0.00 | 56 | 1011.8 |
| 20260902161527 | 86 | 144 | 2.6 | 7.8 | 0.00 | 0.00 | 0.00 | 55 | 1011.8 |
| 20260902161026 | 86 | 196 | 3.5 | 9.6 | 0.00 | 0.00 | 0.00 | 55 | 1011.8 |
| 20260902160525 | 86 | 215 | 3.5 | 9.6 | 0.00 | 0.00 | 0.00 | 54 | 1011.9 |
| 20260902160025 | 86 | 187 | 5.2 | 8.7 | 0.00 | 0.00 | 0.00 | 55 | 1011.8 |
| 20260902155525 | 85 | 186 | 3.5 | 7.0 | 0.00 | 0.00 | 0.00 | 56 | 1011.7 |
| 20260902155027 | 85 | 187 | 3.5 | 7.8 | 0.00 | 0.00 | 0.00 | 56 | 1011.8 |
| 20260902154525 | 86 | 178 | 4.3 | 7.8 | 0.00 | 0.00 | 0.00 | 55 | 1011.8 |
| 20260902154025 | 85 | 223 | 4.3 | 7.8 | 0.00 | 0.00 | 0.00 | 56 | 1011.8 |
| 20260902153525 | 85 | 171 | 2.6 | 7.0 | 0.00 | 0.00 | 0.00 | 58 | 1011.7 |
| 20260902153024 | 85 | 189 | 2.6 | 8.7 | 0.00 | 0.00 | 0.00 | 59 | 1011.9 |
| 20260902152525 | 85 | 232 | 3.5 | 8.7 | 0.00 | 0.00 | 0.00 | 61 | 1011.9 |
| 20260902152024 | 85 | 215 | 3.5 | 7.0 | 0.00 | 0.00 | 0.00 | 60 | 1011.8 |
| 20260902151524 | 84 | 188 | 1.7 | 4.3 | 0.00 | 0.00 | 0.00 | 64 | 1011.7 |
| 20260902151024 | 83 | 124 | 1.7 | 5.2 | 0.00 | 0.00 | 0.00 | 66 | 1011.8 |
| 20260902150524 | 83 | 178 | 1.7 | 5.2 | 0.00 | 0.00 | 0.00 | 65 | 1011.8 |
| 20260902150024 | 82 | 93 | 1.7 | 6.1 | 0.00 | 0.00 | 0.00 | 65 | 1011.7 |
| 20260902145523 | 82 | 209 | 0.9 | 6.1 | 0.00 | 0.00 | 0.00 | 66 | 1011.7 |
| 20260902145024 | 82 | 132 | 1.7 | 6.1 | 0.00 | 0.00 | 0.00 | 66 | 1011.6 |
| 20260902144523 | 81 | 198 | 3.5 | 6.1 | 0.00 | 0.00 | 0.00 | 66 | 1011.7 |
| 20260902144022 | 80 | 234 | 1.7 | 4.3 | 0.00 | 0.00 | 0.00 | 70 | 1011.7 |
| 20260902143523 | 80 | 200 | 1.7 | 4.3 | 0.00 | 0.00 | 0.00 | 70 | 1011.6 |
| 20260902143022 | 79 | 193 | 1.7 | 3.5 | 0.00 | 0.00 | 0.00 | 70 | 1011.8 |
| 20260902142522 | 79 | 162 | 0.9 | 4.3 | 0.00 | 0.00 | 0.00 | 69 | 1011.7 |
| 20260902141516 | 79 | 178 | 1.7 | 5.2 | 0.00 | 0.00 | 0.00 | 68 | 1011.9 |
| 20260902141016 | 79 | 163 | 1.7 | 5.2 | 0.00 | 0.00 | 0.00 | 67 | 1012.0 |
| 20260902140516 | 79 | 132 | 1.7 | 7.8 | 0.00 | 0.00 | 0.00 | 68 | 1011.9 |
| 20260902140015 | 79 | 131 | 1.7 | 7.8 | 0.00 | 0.00 | 0.00 | 69 | 1011.8 |
| 20260902135514 | 79 | 9 | 4.3 | 7.0 | 0.00 | 0.00 | 0.00 | 71 | 1011.8 |
| 20260902135014 | 78 | 221 | 1.7 | 5.2 | 0.00 | 0.00 | 0.00 | 73 | 1011.9 |
| 20260902134514 | 78 | 187 | 2.6 | 7.0 | 0.00 | 0.00 | 0.00 | 74 | 1011.8 |